Theta_e
305 304 304 304 304 304 304 304 304 304 304 304 304 304 305 306 307 308 308 308 308 308 308 308 308 308 308 307 307 307 307 307 307 307 307 308 308 309 309 310 311 311 311 310 309 308 307 307 307 307 308 309 310 311 313 315 317 318 319 319 320 320 321 323 323 324 323 323 323 324 324 325 325 325 325 325 325 324 324 324 324 324 324 323 323 323
303 303 303 303 303 303 303 303 304 304 304 304 304 305 305 305 305 305 305 305 305 305 306 306 306 306 306 305 305 305 305 305 306 306 306 307 307 308 308 308 309 309 309 309 309 308 307 306 306 305 305 306 307 308 309 311 314 316 317 318 319 320 320 321 322 323 323 323 323 323 324 324 325 325 326 325 325 324 324 323 323 323 323 323 323 323
302 301 301 302 302 302 302 302 302 302 302 302 302 302 301 301 301 301 301 301 301 301 302 302 302 302 302 302 303 303 303 304 305 305 306 306 306 307 307 307 307 307 307 307 307 307 307 306 305 305 304 304 304 305 306 308 310 313 315 317 318 319 319 320 320 321 322 323 323 324 324 324 324 325 326 325 324 323 322 322 322 322 323 323 323 322
300 300 300 300 300 300 300 300 300 300 300 300 300 300 300 300 300 300 300 300 300 300 300 300 301 301 302 302 303 303 304 304 305 305 306 306 305 305 305 305 305 305 306 306 306 306 306 306 305 305 304 304 304 304 304 305 307 309 312 314 316 318 319 319 319 320 321 322 323 324 324 324 324 325 326 325 324 323 322 322 322 322 323 323 323 322
299 299 299 298 298 298 298 298 298 298 298 298 298 299 299 299 299 299 299 299 300 300 301 301 302 302 303 303 304 304 305 305 305 305 305 305 304 304 304 304 305 305 305 306 306 306 306 306 306 305 305 305 304 304 304 304 305 307 309 312 314 316 318 318 319 319 319 320 321 322 322 323 324 325 325 325 324 324 323 322 322 322 322 323 323 322
298 298 298 298 297 297 297 297 298 298 298 298 298 298 298 298 298 299 299 299 299 300 300 301 301 302 302 303 303 304 304 304 304 304 304 304 303 304 304 305 305 306 306 306 306 306 306 306 306 306 306 305 305 304 304 304 304 305 308 310 313 315 317 317 318 318 318 319 320 320 321 322 323 323 323 323 324 324 323 323 323 322 323 324 323 322
297 297 297 297 297 297 297 297 297 297 297 297 297 297 297 297 297 298 298 298 298 298 298 299 299 299 300 300 300 301 301 301 301 301 302 302 302 303 304 305 305 306 306 306 306 306 307 307 306 306 306 306 305 305 304 303 304 305 307 309 312 314 315 316 317 318 318 318 319 319 320 321 321 322 322 322 323 323 323 323 323 323 324 324 323 322
297 296 296 296 296 296 296 296 296 296 296 296 296 296 296 296 297 297 297 297 297 297 297 297 297 297 297 298 298 298 299 299 300 300 301 302 302 303 304 304 305 305 306 306 307 307 307 307 307 307 306 306 305 304 303 302 302 303 305 308 310 312 314 315 315 316 317 318 318 318 319 319 320 320 321 321 322 322 322 322 323 323 324 324 322 321
296 296 296 296 296 296 296 295 295 295 295 296 296 296 296 296 296 296 296 296 296 296 296 296 296 297 297 298 298 299 300 300 301 301 301 302 303 303 304 304 304 305 305 305 306 306 307 307 307 306 306 305 304 303 302 301 301 301 303 305 308 310 312 313 314 315 316 316 317 318 318 318 319 319 320 321 321 321 321 321 321 322 323 323 322 321
296 296 295 295 295 295 295 295 295 295 295 296 296 296 295 295 295 295 295 295 295 295 296 296 297 298 298 298 299 299 299 300 300 300 301 301 302 302 303 303 303 303 303 303 304 304 304 304 305 305 304 304 303 302 302 302 301 301 302 303 306 309 311 312 313 314 314 315 316 317 317 318 318 318 319 320 321 321 321 320 320 320 321 322 322 321
295 295 295 295 295 295 295 295 295 295 295 295 295 295 294 294 294 294 294 295 295 295 295 296 296 296 296 296 296 296 297 297 297 298 298 299 299 300 300 301 301 302 302 302 301 301 302 302 302 302 302 302 302 302 302 303 302 302 302 302 304 307 310 312 313 314 314 314 315 316 316 317 318 318 318 319 319 320 320 320 319 319 319 321 321 321
294 294 294 294 294 294 294 294 294 294 294 294 294 294 294 294 294 294 294 294 294 294 294 294 294 294 294 294 294 294 295 295 296 296 297 297 298 298 299 300 300 300 300 301 301 301 301 301 301 302 302 302 303 303 304 304 303 303 302 302 303 305 308 311 313 314 314 314 314 315 315 316 317 317 318 318 318 319 319 319 319 319 319 320 321 321
294 294 294 294 294 294 293 293 293 293 293 293 293 293 293 293 293 293 293 293 293 293 293 293 293 293 294 294 294 294 295 295 296 296 296 297 297 298 299 299 300 300 301 301 302 302 302 302 303 303 303 304 304 304 304 304 304 304 303 302 302 303 305 308 311 313 314 314 314 314 315 316 316 317 317 318 318 318 318 318 319 318 319 320 321 321
293 293 293 293 293 293 293 293 293 293 293 293 293 292 292 293 293 293 293 293 293 293 293 293 293 293 294 294 294 294 295 295 295 295 296 296 297 297 298 299 300 301 301 302 302 303 303 303 304 304 304 305 305 305 305 305 304 304 304 303 303 303 303 306 308 311 313 313 314 314 314 315 316 316 317 317 318 318 318 318 319 319 320 321 321 321
292 292 292 292 292 292 292 292 292 292 292 292 292 292 292 292 292 292 292 292 293 293 293 293 293 293 293 294 294 294 294 294 294 294 294 295 295 296 296 297 298 299 300 301 301 302 302 302 303 304 304 305 305 305 305 305 305 305 305 304 304 303 303 304 306 308 310 311 313 313 314 315 315 316 316 317 317 318 318 319 319 320 321 321 320 320
291 291 291 291 291 291 291 291 291 291 291 291 291 291 291 292 292 292 292 292 292 293 293 293 293 293 293 293 293 293 293 294 294 294 294 294 294 294 295 295 296 296 297 298 298 299 299 300 300 301 302 303 304 305 305 305 305 305 305 305 305 305 304 304 304 305 307 309 311 312 313 314 315 315 316 316 317 318 318 319 319 320 320 320 319 319
291 290 290 290 290 290 290 291 291 291 290 291 291 291 291 291 292 292 292 292 292 292 293 293 292 292 292 293 293 293 293 293 293 293 293 293 293 294 294 294 294 295 295 296 296 296 297 297 298 299 300 301 302 303 304 305 306 306 306 306 306 305 305 304 304 305 306 307 309 310 312 313 314 315 316 316 317 318 318 319 319 319 319 319 319 319
290 290 290 290 290 290 290 290 290 290 290 291 291 291 291 291 291 291 292 292 292 292 292 292 292 292 292 292 292 293 293 293 292 292 292 292 292 293 293 293 293 294 294 294 295 295 295 295 295 296 296 297 298 300 301 303 304 305 305 305 306 306 306 305 305 305 305 306 307 309 310 311 313 314 315 316 317 318 318 319 319 319 319 319 319 319
290 290 290 290 290 290 290 290 290 290 290 290 291 291 291 291 291 291 291 291 291 291 291 291 291 292 292 292 292 292 292 292 292 291 292 292 292 292 292 293 293 293 293 294 294 294 294 294 294 293 293 294 294 296 297 299 300 302 303 304 305 305 306 306 305 305 305 305 306 308 309 310 311 312 313 315 316 317 318 318 318 318 318 318 318 318
291 291 290 290 290 290 290 290 290 290 290 290 290 290 290 290 291 291 291 291 291 291 291 291 291 291 291 291 291 291 291 291 292 292 292 292 292 292 292 293 293 293 293 293 293 294 294 294 294 293 293 293 293 294 295 296 298 299 301 302 303 304 305 306 306 306 305 305 306 307 308 309 310 311 312 313 314 316 317 317 317 318 318 317 317 317
291 291 291 291 290 290 290 290 290 290 290 290 290 290 290 290 290 290 290 290 290 290 290 290 290 290 290 291 291 291 292 292 293 293 293 293 293 293 292 293 293 293 293 293 293 293 294 294 294 294 294 294 294 294 294 295 297 298 300 301 303 304 305 306 306 306 306 305 305 306 307 309 310 310 311 311 312 314 315 316 317 317 317 316 316 316
290 290 291 291 291 291 291 290 290 290 290 290 291 291 291 291 291 291 291 291 291 291 291 291 292 292 292 293 293 292 292 293 293 293 292 292 292 292 292 292 292 292 293 293 293 293 294 294 294 294 295 295 295 294 294 295 296 298 299 300 302 303 304 305 306 306 306 306 305 305 306 308 309 310 311 311 311 312 313 314 315 316 316 316 315 315
289 289 289 289 290 290 290 291 291 291 291 291 292 292 292 292 292 292 292 292 292 292 292 292 292 292 292 291 291 291 290 290 290 290 290 291 291 291 291 291 292 292 293 293 294 294 294 294 294 295 295 295 295 295 295 295 296 297 298 300 301 302 303 304 305 305 306 306 305 305 305 307 308 310 311 311 311 311 312 313 314 315 315 315 315 315
288 288 288 288 288 289 289 289 289 290 290 290 291 291 291 291 291 291 291 291 291 291 291 291 290 290 290 289 289 289 289 289 289 289 290 290 290 290 290 291 292 293 293 294 294 295 295 295 295 295 295 295 295 295 295 295 296 296 297 298 300 301 302 303 304 304 304 305 305 305 305 306 307 309 310 311 311 311 311 312 313 314 314 314 315 315
288 288 288 288 288 289 289 289 289 289 290 290 290 290 290 290 290 290 290 290 290 290 290 290 289 289 289 289 289 289 289 289 289 289 289 289 290 290 290 291 291 292 293 294 294 295 295 296 296 296 296 296 296 296 296 296 296 296 297 298 299 300 301 302 302 302 303 303 304 304 305 305 307 308 309 310 310 310 311 311 312 313 313 314 314 314
289 289 289 289 290 290 290 290 290 290 290 290 290 290 290 290 290 290 290 290 290 290 290 290 289 289 289 289 289 289 289 289 289 289 289 289 289 289 289 290 291 291 292 293 294 295 295 296 296 296 296 296 296 296 297 297 296 297 297 298 298 299 300 301 301 302 302 303 304 304 305 305 306 307 307 307 308 308 309 310 311 312 313 313 314 314
289 290 290 290 290 290 290 290 290 290 290 291 291 291 290 290 291 291 291 290 290 290 290 290 290 290 290 290 290 290 290 290 290 289 289 289 289 289 289 290 290 291 291 291 292 293 294 294 295 295 296 296 296 296 297 297 297 297 297 298 299 299 300 300 301 301 302 303 304 304 305 305 305 305 305 305 305 306 307 309 310 311 312 313 313 313
288 288 288 288 288 289 289 289 289 290 290 290 291 291 291 291 291 291 291 291 291 291 291 291 291 291 291 291 291 290 290 290 290 290 289 289 289 289 289 290 290 290 290 290 291 291 292 292 293 294 294 295 295 295 296 297 297 297 297 298 298 298 299 299 300 300 301 303 304 304 305 305 304 304 303 303 303 303 305 307 309 310 311 312 312 312
288 288 288 288 288 288 288 289 289 289 290 290 290 291 291 291 291 291 291 291 291 291 291 291 291 291 291 291 291 291 290 290 290 289 289 289 289 290 290 290 290 290 290 290 290 290 291 291 291 292 293 294 294 295 296 296 296 297 297 297 297 298 298 298 299 300 301 303 304 304 304 304 303 303 302 301 301 301 303 305 307 309 310 311 311 312
288 288 288 288 288 288 289 289 289 289 289 290 290 291 291 291 292 292 292 292 291 291 291 291 291 291 291 290 290 290 290 289 289 289 289 290 290 290 290 290 290 290 290 290 290 290 290 291 291 292 293 293 294 295 295 295 296 296 297 297 298 298 299 299 300 300 301 302 303 303 303 303 302 302 301 300 300 300 301 303 306 308 310 310 310 311
289 289 289 289 289 289 290 289 289 289 289 290 290 290 291 291 291 291 291 291 290 290 290 290 290 290 290 290 290 289 289 289 289 289 289 290 290 290 290 290 290 290 290 290 290 291 291 291 291 291 292 293 294 294 294 295 295 296 296 297 298 298 299 300 300 300 301 301 301 301 301 301 301 301 300 300 299 299 300 302 304 307 309 309 310 310
288 288 288 289 289 289 289 289 288 288 288 288 289 289 289 289 289 290 289 289 289 289 289 289 289 289 289 289 289 289 289 289 289 289 289 290 290 290 290 290 290 290 289 290 290 290 291 291 291 292 292 293 293 293 293 294 294 295 295 296 297 298 298 299 300 300 300 300 299 299 299 299 300 300 299 299 299 299 299 301 303 306 308 309 309 309
287 287 287 287 287 287 287 287 287 287 287 287 287 288 288 288 288 288 288 288 288 288 288 288 288 289 289 289 289 289 289 289 289 289 289 289 290 290 290 290 290 289 289 290 290 290 291 292 292 292 293 293 292 292 292 293 293 294 294 295 296 297 298 298 299 299 299 299 299 299 299 299 299 299 299 299 299 299 299 300 302 304 307 308 309 309
287 287 287 287 287 287 287 287 286 286 286 287 287 287 287 287 287 287 287 288 288 288 288 288 288 289 289 289 289 289 289 289 289 289 289 289 289 289 290 290 290 290 290 291 291 291 292 292 293 293 293 292 292 292 292 293 293 293 293 294 295 296 297 298 298 298 299 299 299 299 299 299 300 300 300 299 299 299 299 300 301 303 306 308 309 309
287 287 287 288 287 287 287 287 286 286 286 286 286 286 287 287 287 287 287 287 288 288 288 288 288 289 289 289 289 289 289 289 289 289 289 289 289 290 290 290 291 291 291 292 292 292 292 292 292 292 292 292 291 291 292 292 292 293 293 294 294 295 296 297 297 298 298 298 298 299 299 299 299 300 300 300 300 300 300 300 301 302 304 306 308 309
288 288 288 288 287 287 287 287 287 287 287 287 287 287 288 288 288 288 288 288 288 288 289 289 289 289 289 289 289 289 289 289 289 289 289 289 290 290 290 291 291 291 292 292 291 291 291 291 291 291 291 291 291 291 291 291 292 293 294 294 295 296 296 296 297 297 297 298 298 298 299 299 300 300 300 300 301 301 301 301 301 302 303 305 307 308
288 288 287 287 287 287 287 287 287 288 288 288 289 289 288 288 288 288 288 289 289 289 289 289 289 289 289 289 289 290 290 290 290 290 290 290 290 290 290 291 291 291 291 291 291 291 290 290 290 290 290 290 290 291 291 291 292 293 294 294 295 295 296 296 296 297 297 297 298 298 299 299 300 300 300 301 301 301 302 302 302 303 303 305 307 308
287 287 287 288 288 288 288 288 287 287 287 287 286 286 286 286 286 287 287 287 287 288 288 288 288 289 289 289 289 290 290 290 290 290 290 290 290 290 290 290 290 290 290 290 290 290 290 290 290 290 290 290 290 290 290 291 291 292 292 293 294 294 295 296 296 296 296 297 297 297 298 299 299 300 301 301 302 302 302 302 303 303 304 305 307 308
286 287 287 288 287 287 286 286 285 285 285 285 285 285 285 285 286 286 286 286 286 287 287 287 287 287 287 288 288 288 288 289 289 289 289 289 290 290 290 290 290 289 289 289 290 290 290 290 290 290 290 290 290 290 290 290 291 291 291 291 292 293 294 295 296 296 296 296 296 297 297 297 298 299 300 301 302 303 303 303 304 304 305 306 307 308
286 286 286 286 286 285 285 285 285 285 284 284 285 285 285 285 285 285 286 286 286 286 287 287 287 287 287 287 287 287 287 287 288 288 288 289 289 289 289 289 289 289 289 289 289 290 290 290 290 290 290 290 290 290 291 291 291 291 291 291 291 292 293 294 295 295 295 296 296 296 296 297 297 298 299 301 302 303 303 304 304 305 306 306 307 307
285 285 285 285 285 284 284 284 284 284 284 284 284 284 284 284 285 285 285 285 286 286 286 286 287 287 287 287 287 287 287 287 287 287 288 288 288 288 289 289 289 289 289 289 289 290 290 290 290 290 290 290 291 291 291 291 291 291 291 291 291 291 292 293 294 295 296 296 296 296 296 297 297 298 299 300 301 302 303 304 305 305 306 307 307 307
284 284 284 284 284 284 284 284 284 284 284 284 284 284 284 284 284 285 285 285 285 286 286 286 287 287 287 287 287 287 287 288 288 288 288 288 288 288 288 288 289 289 289 289 289 290 290 290 290 291 291 291 291 291 291 291 291 291 291 291 291 291 292 293 294 295 296 296 296 296 296 297 297 298 299 300 301 302 303 304 305 305 306 306 307 306
283 283 283 283 283 283 284 284 284 284 284 284 284 284 285 285 285 285 285 285 285 286 286 286 287 287 287 288 288 288 288 288 288 289 289 289 289 289 289 289 289 289 289 289 290 290 290 290 291 291 291 291 291 291 291 291 291 291 290 291 291 292 293 293 294 295 296 296 296 296 297 297 297 298 298 299 300 301 303 304 305 306 306 306 306 306
283 283 284 284 284 284 285 285 285 285 285 285 285 285 285 285 285 285 285 285 285 286 286 286 286 287 287 288 288 288 288 288 289 289 289 290 290 290 290 290 290 290 290 290 290 290 290 291 291 291 291 291 291 291 291 291 291 291 290 291 291 292 293 293 294 295 296 296 296 296 296 296 296 297 297 298 300 301 302 303 305 305 305 305 305 305
284 284 284 285 285 285 285 284 284 284 284 284 284 284 284 284 285 285 285 286 286 286 286 286 286 287 287 287 288 288 288 288 288 289 289 289 290 290 290 290 290 290 290 290 290 290 290 291 290 290 290 290 290 291 291 291 291 291 291 291 291 292 293 293 294 295 295 296 296 295 295 295 296 296 297 298 299 301 302 303 304 304 304 304 305 305
284 284 284 283 283 283 283 283 283 283 283 284 284 284 284 285 285 285 286 286 286 286 286 287 287 287 287 287 287 287 288 288 288 288 288 288 289 289 289 290 290 290 290 290 290 290 290 290 290 290 290 290 290 291 291 291 291 291 291 292 292 292 293 293 294 294 295 295 295 295 295 295 295 295 296 298 299 301 301 302 303 303 303 304 304 304
282 282 282 282 282 282 283 283 283 283 283 284 284 284 284 284 283 283 283 284 284 284 285 286 286 287 287 287 288 288 288 288 288 288 288 288 288 288 289 289 289 289 289 289 289 290 290 290 290 290 290 290 290 290 291 291 291 292 292 292 292 293 293 293 293 294 295 295 295 295 294 294 295 295 296 298 299 300 301 301 302 302 303 303 303 303
282 282 282 282 282 282 283 283 283 283 283 283 283 283 283 283 283 283 283 283 283 283 284 284 285 286 286 287 288 288 288 289 289 289 289 289 289 289 289 289 289 289 289 289 289 289 289 289 289 290 290 290 290 291 291 291 291 292 292 293 293 293 294 294 294 294 295 295 295 294 294 295 295 295 296 297 298 299 299 300 301 302 302 302 303 303
281 281 282 282 282 282 282 282 282 282 282 282 282 282 282 282 282 282 282 283 283 283 283 283 284 284 285 285 286 287 288 288 289 289 289 289 289 289 289 289 289 289 289 289 289 289 289 290 290 290 290 290 291 291 291 291 291 292 293 293 294 294 294 295 295 295 295 295 295 294 295 295 295 295 296 296 297 297 297 298 300 300 301 301 302 302
281 281 281 281 282 282 282 282 282 282 282 282 282 282 282 282 282 282 282 282 283 283 283 283 284 284 284 285 285 285 286 287 287 288 288 288 288 289 289 289 290 290 290 290 290 290 290 290 290 290 290 291 291 291 291 291 292 292 293 294 294 295 295 295 295 295 295 295 295 295 295 295 295 295 295 295 295 296 296 297 298 299 300 300 301 301
280 281 281 281 281 281 281 281 281 281 281 281 281 281 281 281 282 282 282 282 283 283 283 284 284 284 285 285 285 285 286 286 286 287 287 287 288 288 289 289 290 290 290 290 290 291 291 291 291 291 291 291 291 291 292 292 292 292 293 294 294 295 295 295 296 295 295 295 295 295 295 295 295 295 295 294 295 295 295 295 296 297 299 299 300 300
Wind_Speed
17 17 18 17 18 18 19 19 20 21 22 23 23 23 22 21 21 20 20 20 20 21 21 21 21 22 22 22 22 22 23 23 23 23 23 23 23 23 23 22 22 22 22 22 23 24 26 26 27 27 27 27 26 26 26 26 26 26 25 24 24 23 22 22 23 25 27 28 28 28 28 28 29 30 31 32 32 32 33 34 34 34 32 31 30 30
17 18 18 17 17 18 19 18 18 18 19 20 20 19 19 19 19 20 19 19 19 20 21 22 22 23 24 24 24 24 24 24 24 23 23 23 23 23 23 23 23 23 24 24 25 26 27 28 29 29 30 30 29 28 28 27 27 27 27 26 26 25 23 22 22 24 26 28 29 30 30 30 31 33 34 34 33 33 33 33 33 32 32 31 31 31
17 17 17 17 17 17 18 18 18 18 18 19 20 20 21 22 22 23 24 24 24 24 25 25 26 26 27 27 26 26 26 25 24 24 23 23 23 23 24 25 26 27 27 28 28 28 29 30 30 31 31 31 31 30 30 29 28 28 28 28 27 27 26 24 23 23 24 27 29 30 31 32 33 35 36 35 33 32 32 32 32 31 31 31 32 32
17 17 18 17 17 18 18 19 19 19 19 21 22 23 23 25 26 27 27 27 27 27 27 27 27 27 27 27 27 26 25 24 24 23 23 23 24 25 25 27 28 29 30 30 30 30 30 30 30 29 29 29 29 30 30 30 29 29 29 29 29 28 28 27 26 24 24 26 28 30 31 32 34 36 37 36 33 31 31 31 32 32 32 32 33 33
17 16 17 17 17 18 18 18 19 20 21 22 23 24 25 25 26 27 27 27 26 26 26 25 25 25 25 24 24 23 23 23 23 23 23 24 24 25 26 26 27 28 29 29 30 30 30 29 28 27 26 26 27 27 28 29 29 29 29 29 29 29 29 29 29 28 26 26 27 29 31 32 34 36 36 35 32 30 30 31 32 33 33 34 34 35
17 16 16 16 17 18 18 18 19 20 21 22 23 23 24 24 24 24 24 24 24 24 24 23 23 23 23 22 22 22 22 22 23 23 24 24 25 25 25 25 25 26 26 27 28 28 28 27 26 25 25 25 25 26 26 27 28 29 29 29 29 29 29 30 31 30 29 28 28 29 30 31 33 35 35 33 31 30 29 30 31 33 34 35 36 36
17 17 16 17 17 18 18 19 19 19 20 21 22 23 23 23 23 23 23 23 23 23 24 24 24 24 24 24 24 24 24 25 25 25 25 25 25 24 24 24 23 24 24 25 25 26 26 26 26 25 25 25 26 26 27 27 28 28 29 29 29 29 29 30 31 31 31 31 30 30 29 30 32 34 34 34 31 30 29 29 30 32 34 36 37 38
18 18 17 17 18 18 19 19 19 19 20 21 22 22 22 22 21 21 22 23 23 24 25 26 26 26 26 26 26 26 26 25 25 25 24 24 23 23 22 22 21 21 21 22 22 23 24 25 25 26 26 27 28 29 29 30 30 29 29 29 29 29 29 29 30 31 32 33 33 32 31 30 31 32 34 34 33 31 30 30 30 32 34 36 37 37
18 18 18 18 17 18 19 20 20 20 19 20 20 20 20 20 21 21 22 23 23 24 24 25 25 25 25 24 23 23 22 22 22 22 22 21 21 21 20 20 20 19 19 19 19 20 22 23 25 26 27 28 30 31 32 32 31 31 30 30 30 30 29 29 29 31 32 33 34 34 34 33 32 32 32 33 33 32 31 31 32 33 34 36 36 37
18 18 18 18 18 18 19 20 20 19 18 18 19 19 19 20 20 21 21 22 22 21 20 21 21 21 20 19 18 18 19 20 20 20 21 21 21 21 22 22 22 22 22 21 22 22 23 24 26 27 29 30 31 32 32 32 31 31 30 30 30 31 30 29 29 30 31 32 33 35 36 36 35 34 33 33 33 33 33 33 33 34 35 36 37 38
18 18 18 18 18 18 18 18 18 17 16 17 19 20 20 19 19 19 19 19 19 18 17 17 17 18 19 19 19 20 21 22 22 23 23 23 24 24 25 25 26 26 26 26 27 27 27 28 29 30 31 32 32 32 31 30 30 30 30 30 30 30 31 31 30 30 30 32 33 34 35 36 37 37 36 35 35 35 35 35 35 35 35 37 38 39
17 17 16 17 17 16 16 17 17 17 16 17 17 17 18 17 16 16 17 17 17 17 18 18 19 20 21 22 22 22 22 23 24 24 25 25 25 26 26 27 27 28 28 29 29 29 29 29 30 30 31 31 31 31 30 29 29 29 29 29 29 29 30 31 31 31 31 31 33 34 35 36 37 38 39 38 38 38 38 38 37 37 37 39 40 40
16 16 16 16 16 15 15 15 15 15 15 15 14 14 15 15 15 16 17 19 19 20 20 21 22 22 22 22 21 21 21 22 23 23 24 24 24 24 24 25 26 26 26 26 26 26 26 26 27 28 28 29 29 29 29 29 29 29 29 29 29 28 29 30 31 31 31 32 33 34 36 37 38 39 40 40 40 40 40 40 39 39 40 41 42 42
15 15 15 15 15 15 15 15 14 14 14 14 14 15 16 17 18 18 19 20 21 21 21 21 21 21 20 20 19 19 20 21 22 22 22 22 22 21 22 22 23 23 23 23 23 22 22 22 23 24 25 25 26 27 27 28 29 29 30 30 29 28 28 28 29 31 31 32 33 34 35 37 38 39 41 41 42 42 42 42 42 42 43 44 44 42
15 14 14 13 14 15 15 15 15 15 15 16 17 18 19 19 19 19 18 19 19 20 19 20 21 20 19 18 17 17 18 19 20 20 21 21 20 20 19 21 22 22 22 23 23 23 22 21 21 21 22 23 24 26 26 27 28 29 29 30 30 29 29 28 28 29 30 31 32 34 35 37 39 40 41 42 43 43 44 44 44 45 45 46 44 42
15 14 13 13 14 15 16 16 16 17 18 18 18 19 19 19 18 17 17 17 18 18 17 17 16 16 17 16 15 14 15 17 18 18 20 21 20 19 19 21 23 24 24 25 26 26 25 25 24 23 22 23 24 24 25 26 27 28 29 29 30 30 30 29 28 28 28 30 31 33 35 37 39 40 41 43 44 45 45 45 45 45 45 44 43 41
16 15 15 15 15 17 17 17 18 18 19 19 18 18 18 18 17 17 16 17 16 16 15 13 8 5 9 14 14 12 13 16 18 19 20 21 21 20 20 22 23 24 24 25 27 28 28 28 28 27 25 24 24 24 25 26 26 27 28 29 30 31 31 30 29 28 28 28 30 32 34 36 38 40 41 43 44 45 46 46 46 45 44 43 42 40
17 17 16 16 16 17 18 17 18 18 18 18 18 18 18 18 17 17 17 16 15 14 14 13 10 6 5 10 13 13 13 17 20 21 21 22 22 22 20 21 23 24 24 25 26 28 29 30 31 31 30 29 28 27 27 27 27 28 28 29 30 31 31 31 31 29 28 28 29 30 32 34 36 38 40 42 43 45 46 46 45 44 43 42 40 39
17 17 17 17 17 18 18 18 17 17 17 17 17 17 18 18 18 18 18 17 16 16 15 14 13 13 12 14 17 17 17 19 22 22 21 23 23 23 21 21 23 25 25 25 26 27 29 31 33 34 34 35 33 32 30 30 29 29 29 29 30 30 31 32 32 31 29 28 28 29 30 32 34 36 38 40 42 43 44 44 44 43 42 41 39 38
18 18 18 17 18 18 18 18 18 17 17 17 17 18 18 18 18 18 19 18 18 18 17 17 16 16 17 19 21 20 19 20 21 21 21 22 24 24 22 21 23 25 25 26 26 27 28 30 31 33 36 36 36 34 33 32 31 30 30 29 29 30 31 32 32 32 31 30 29 28 29 30 32 34 37 39 41 43 43 43 43 42 41 41 40 40
18 18 18 17 17 18 19 19 19 19 19 19 19 20 20 19 19 19 19 19 19 20 19 19 19 20 20 21 22 21 19 19 19 19 19 22 24 25 24 23 24 26 26 27 27 27 28 29 30 32 34 35 35 34 33 32 32 31 30 30 29 29 30 31 32 32 32 31 30 29 29 30 31 33 35 37 39 41 43 44 44 44 43 43 43 43
18 19 19 18 18 19 21 21 20 20 19 20 20 20 19 18 18 19 19 18 18 19 19 19 19 19 19 20 21 21 19 19 19 20 20 21 24 26 25 24 25 26 27 28 28 28 28 28 29 30 31 32 33 33 33 32 32 31 30 30 29 29 29 30 31 32 33 32 31 30 30 30 31 32 34 35 37 39 42 44 46 46 46 46 45 45
22 23 22 21 21 21 22 21 21 21 21 21 21 20 18 18 18 18 17 16 17 18 18 18 20 21 23 24 25 25 24 23 22 22 22 17 20 25 24 23 24 26 27 27 27 27 28 28 28 29 30 31 32 33 33 33 32 31 31 30 30 29 29 29 30 31 32 33 33 32 31 31 31 32 34 35 35 37 39 43 46 47 48 48 47 47
24 24 24 24 23 23 24 24 24 24 24 24 24 24 23 23 22 22 22 23 22 22 23 25 26 27 27 27 27 27 26 24 22 22 21 19 21 23 23 23 23 25 26 26 25 26 27 27 27 28 29 30 31 32 33 33 33 32 31 31 31 30 30 29 30 31 32 33 34 33 32 32 32 33 34 34 34 35 37 40 44 47 49 49 49 49
24 24 24 24 24 24 25 25 25 25 25 25 25 25 25 25 25 26 26 26 26 25 24 25 24 24 24 25 25 25 25 22 21 21 20 19 20 23 24 22 23 24 26 25 24 24 25 26 26 26 27 29 30 31 33 34 34 33 32 32 31 31 30 30 30 31 32 33 34 34 33 32 32 33 33 33 33 33 35 38 41 45 48 50 50 50
25 25 26 25 26 26 27 27 27 27 27 27 27 26 25 24 24 24 25 24 23 23 23 21 20 20 22 22 23 23 22 20 19 20 20 18 19 22 23 22 22 24 26 25 23 22 24 25 25 25 26 27 29 30 31 33 33 33 32 32 31 31 30 31 31 32 33 34 34 34 34 33 33 33 33 33 32 32 33 35 39 42 46 49 50 50
25 25 26 26 27 27 29 30 31 32 32 32 31 30 28 26 25 23 22 22 21 21 20 16 13 14 18 19 20 21 20 18 18 18 18 19 20 21 22 21 21 23 25 25 24 23 24 25 25 25 26 28 29 30 30 31 32 32 32 31 30 30 30 31 32 32 33 34 35 34 33 33 33 33 34 34 33 32 32 34 36 39 43 46 48 49
23 24 24 25 27 29 31 33 34 34 34 34 33 32 31 29 26 24 22 21 21 21 20 14 9 7 9 13 16 19 19 18 18 18 18 19 19 21 23 21 21 22 24 24 24 24 24 26 26 26 27 28 29 30 30 30 30 31 31 31 30 30 31 31 32 33 34 34 34 34 33 32 32 32 33 33 32 32 32 33 35 37 41 43 45 46
22 23 24 26 28 31 34 35 36 35 34 34 33 32 31 30 28 25 23 20 18 17 17 15 12 9 9 13 17 19 20 22 22 21 19 20 21 22 22 21 21 22 21 21 22 23 24 25 25 25 26 27 27 27 27 27 28 29 29 30 30 31 31 31 32 33 33 34 34 33 32 31 31 31 32 32 31 31 31 32 34 36 38 40 42 42
21 22 23 26 29 32 34 35 34 32 31 30 29 29 29 28 27 26 24 20 16 14 14 14 13 14 14 15 14 14 18 23 23 21 20 19 19 19 18 17 18 19 17 15 13 14 18 21 22 22 23 23 23 22 22 23 24 25 26 27 28 29 30 30 31 31 32 32 32 32 32 32 32 33 33 33 32 32 31 32 33 35 36 37 38 38
20 22 24 26 28 29 29 28 26 24 23 23 23 24 24 25 25 25 24 21 19 18 18 19 19 19 18 12 8 6 9 19 21 18 18 17 17 16 14 14 16 18 17 13 6 3 9 13 18 20 21 21 21 20 21 23 25 26 26 25 26 26 27 28 28 29 29 30 31 32 33 34 34 35 36 36 36 35 33 33 33 34 34 34 34 34
24 25 26 26 26 26 25 23 22 22 22 22 22 22 23 23 23 24 23 23 23 23 23 24 24 23 22 16 12 9 10 19 21 18 18 18 18 17 15 15 17 20 20 17 14 10 7 7 13 20 21 22 21 22 23 25 27 29 28 28 28 27 27 26 26 26 27 29 30 32 33 35 35 36 37 37 38 37 36 34 34 34 34 33 32 32
27 28 28 27 27 26 26 26 26 26 26 26 25 25 25 25 25 25 25 25 25 25 25 25 25 24 23 23 21 20 22 24 23 21 20 20 19 18 17 18 20 22 22 21 22 21 16 13 15 19 20 21 21 22 23 25 27 28 29 29 29 29 28 26 24 24 26 27 29 30 32 34 35 35 36 37 38 38 37 36 36 36 35 34 32 31
28 28 28 27 26 26 26 27 28 28 28 27 27 26 27 27 27 27 27 27 27 26 26 26 25 24 24 22 22 23 25 26 26 24 22 22 21 19 18 19 21 22 21 19 19 19 18 17 15 14 15 18 20 21 22 24 25 27 28 29 29 29 28 26 25 24 25 26 27 29 30 31 32 33 34 35 36 36 36 36 36 37 37 36 33 30
28 28 26 24 23 23 25 26 27 27 27 27 26 26 26 27 27 27 27 27 26 26 27 27 26 25 25 22 21 22 24 26 26 24 23 24 22 19 17 18 19 20 17 15 12 11 10 13 15 15 15 18 21 24 24 25 26 27 28 29 30 29 28 26 25 24 24 25 27 28 29 29 30 31 32 33 33 34 35 35 36 37 38 38 36 33
23 21 20 19 21 24 27 27 27 25 25 25 24 23 23 23 23 23 24 24 25 26 27 27 27 27 26 25 24 24 26 27 26 24 22 23 22 19 16 16 16 16 15 14 13 12 12 14 18 20 20 18 19 22 25 26 25 25 26 27 28 28 28 27 26 25 24 25 27 27 28 29 29 30 30 30 31 31 32 33 34 36 37 39 38 36
17 17 18 20 22 25 25 24 21 19 17 17 16 16 16 17 18 19 20 22 23 24 25 26 27 27 27 27 28 28 29 28 26 24 23 23 22 21 18 17 18 18 18 16 17 19 18 17 17 19 19 17 16 18 22 24 24 24 24 25 25 25 26 26 26 26 25 26 26 27 28 29 29 30 30 30 30 30 31 32 33 34 35 37 38 38
19 20 21 20 19 17 15 14 13 13 14 15 16 17 18 19 20 21 21 22 23 23 24 25 26 27 28 28 30 31 31 30 29 29 28 26 25 24 22 22 22 22 22 21 21 21 20 14 11 10 10 15 19 21 23 23 23 23 23 25 25 25 25 25 25 25 25 26 26 27 28 29 29 30 30 30 29 29 29 30 31 32 33 36 37 39
22 22 21 19 17 17 18 18 18 18 19 19 20 21 21 22 23 23 24 24 24 25 26 26 27 28 29 30 31 32 32 32 33 33 33 32 31 30 27 26 25 26 26 26 24 22 20 16 13 9 7 12 18 22 24 24 23 24 25 25 26 25 24 24 24 24 24 25 25 26 27 28 28 28 29 29 28 27 26 27 28 30 31 34 36 37
21 21 20 20 21 21 22 22 23 23 23 23 23 23 23 23 23 24 24 24 25 25 26 27 28 29 30 31 32 32 33 34 35 35 35 35 35 34 31 29 28 28 28 27 25 23 22 22 22 21 20 18 18 20 22 23 24 24 24 23 23 24 25 24 22 22 23 24 24 25 26 26 26 27 28 28 28 28 27 26 27 28 29 31 33 34
20 20 21 21 22 22 23 24 25 25 25 24 24 23 23 23 22 23 24 25 25 25 26 26 27 28 30 31 32 33 33 34 35 35 35 35 36 36 34 33 30 29 28 27 26 25 24 24 25 26 25 24 23 23 24 25 25 25 24 22 23 25 26 25 24 24 24 24 24 25 25 25 26 27 27 28 29 29 29 28 27 28 29 31 32 33
21 22 22 23 23 24 25 25 25 25 25 24 23 23 23 23 23 23 24 24 24 24 25 25 26 26 27 28 30 31 31 32 33 34 35 36 37 37 36 35 33 31 29 28 27 26 26 25 25 26 26 25 23 22 23 25 26 26 25 24 25 26 26 26 25 24 23 23 24 24 24 24 25 26 26 28 29 30 30 30 30 29 30 30 32 33
23 23 24 25 25 25 25 25 24 23 23 22 22 22 23 22 22 22 22 23 24 25 25 25 25 25 25 25 26 27 28 29 30 31 32 34 35 36 36 36 35 33 31 28 26 26 26 25 24 24 25 24 24 24 23 25 26 26 26 26 24 22 19 21 22 22 21 21 21 22 23 24 25 26 27 28 29 30 30 30 32 32 31 30 31 33
24 24 24 24 23 23 22 20 20 19 19 19 20 21 22 22 22 22 22 24 24 24 24 25 25 24 24 24 25 25 25 26 26 27 28 30 31 32 34 35 35 34 32 29 25 23 23 23 23 24 25 25 24 24 25 25 25 26 27 26 25 22 20 21 21 21 19 19 20 21 22 24 25 26 27 28 30 31 31 30 31 31 30 30 31 32
21 20 19 18 18 17 17 18 19 20 21 22 23 23 23 23 22 22 22 22 22 22 22 23 23 23 21 22 23 23 24 24 24 24 25 26 27 28 30 32 33 33 32 30 28 25 22 22 24 26 26 24 23 23 24 25 26 26 27 27 25 24 25 25 25 23 22 21 21 23 24 26 26 25 26 28 30 32 31 29 28 29 29 30 31 32
17 18 19 20 20 21 22 23 23 23 23 24 24 23 22 21 20 20 20 21 21 22 23 22 21 20 19 20 21 22 22 23 23 24 24 25 25 26 27 29 30 30 30 30 30 30 28 27 27 26 24 22 22 24 25 26 26 25 26 26 25 24 24 25 26 26 25 24 23 24 26 26 26 25 25 27 28 29 29 28 28 28 29 31 32 33
21 22 23 23 23 24 24 24 23 21 21 21 21 21 21 20 20 21 22 23 23 23 23 23 21 20 19 19 19 19 19 20 22 23 23 23 23 24 25 26 27 29 30 30 31 32 32 31 30 27 24 21 21 23 25 26 25 24 24 24 24 23 23 25 26 27 26 24 24 23 24 23 22 22 23 24 23 23 24 26 27 29 30 32 33 33
22 23 23 23 23 23 23 22 21 20 20 20 21 22 22 22 21 22 22 23 23 23 22 22 22 21 21 20 20 19 18 19 19 20 20 20 20 20 21 22 24 27 29 31 33 34 33 33 32 30 27 24 22 23 24 25 24 23 22 23 23 22 23 25 26 26 24 23 23 23 22 21 20 19 19 19 17 17 19 22 25 28 30 32 33 33
21 21 22 22 21 21 20 21 21 20 21 21 22 23 23 23 23 22 22 22 22 22 22 21 21 21 21 21 22 22 21 20 19 19 19 19 19 19 19 20 22 24 27 29 31 32 32 32 33 33 32 30 27 26 27 27 25 23 22 22 21 21 20 22 23 22 21 20 21 22 22 21 20 19 17 15 13 13 14 18 22 25 28 30 32 32
21 22 22 21 21 21 21 21 21 22 22 22 22 22 23 23 23 22 22 22 22 21 21 21 20 20 20 21 22 23 23 22 22 21 22 22 21 20 20 20 20 21 21 22 22 22 22 23 26 31 34 34 33 31 29 28 27 25 22 21 20 20 20 19 19 19 18 18 18 20 21 21 21 20 17 14 11 11 13 15 17 21 25 27 29 31
21 22 22 21 21 22 22 22 22 22 22 22 22 22 23 22 22 22 21 20 20 20 20 21 20 19 20 21 22 23 23 23 23 23 24 24 23 22 21 20 19 17 15 13 11 11 10 10 14 21 27 33 36 35 33 30 27 24 22 21 21 20 19 18 18 17 17 17 18 18 19 19 19 19 17 14 10 10 11 12 14 18 22 25 26 28
Wind_Direction
277 279 281 281 282 282 281 281 282 284 285 286 287 289 290 289 288 286 286 285 284 284 284 283 283 283 283 284 284 285 285 285 285 285 285 286 287 289 291 293 293 292 291 290 290 290 291 291 292 292 291 290 289 286 283 281 278 276 274 272 270 266 261 253 244 237 233 231 231 232 234 236 238 240 240 240 239 238 236 232 227 222 219 217 216 217
277 279 279 279 279 279 279 280 280 281 283 284 286 287 287 287 286 285 284 283 283 284 284 284 284 284 285 285 285 285 285 285 284 284 283 283 284 286 288 290 290 290 289 289 289 289 290 290 291 291 291 290 289 287 285 282 279 276 274 271 269 267 264 258 250 243 239 237 236 236 236 236 238 239 240 238 236 234 233 230 225 220 217 216 216 217
278 279 278 278 278 278 279 281 281 280 281 283 284 285 287 287 287 287 287 287 287 286 286 286 286 286 286 286 286 286 285 284 283 282 282 281 282 283 284 286 286 287 287 288 288 288 289 289 290 290 290 290 289 288 285 282 280 277 274 271 268 266 264 261 256 249 244 241 239 239 238 238 239 241 241 240 237 234 232 229 226 222 219 218 218 218
277 278 279 280 280 279 279 281 282 282 282 283 284 285 286 288 288 289 289 290 290 289 289 288 288 288 288 287 287 286 285 284 282 282 281 281 282 282 283 283 283 284 285 286 287 288 288 289 290 290 291 291 291 289 287 284 280 277 275 272 269 266 264 262 259 255 249 244 241 239 238 238 239 241 243 242 239 236 233 231 227 224 221 219 219 218
277 278 280 283 283 282 281 282 284 285 285 286 286 287 288 289 289 289 289 290 290 290 290 290 289 289 289 289 288 287 286 285 284 283 284 284 284 284 284 283 283 283 283 284 285 286 287 288 290 291 293 294 294 293 291 287 282 278 274 272 269 266 263 261 259 257 254 249 245 242 239 238 238 239 240 239 238 236 233 230 227 224 222 221 221 219
278 279 282 283 284 284 285 286 287 288 290 290 289 289 289 289 289 289 289 289 289 289 289 289 289 289 289 289 289 288 288 287 287 287 287 287 287 287 286 285 284 283 283 284 284 285 285 286 288 291 294 296 297 298 296 293 287 281 276 272 269 267 264 261 259 257 256 253 250 247 244 241 239 238 237 235 234 233 232 230 228 226 224 224 223 220
280 280 282 283 283 284 285 286 287 289 292 292 292 290 289 288 287 287 287 287 287 288 288 288 287 287 287 287 288 289 289 289 289 289 288 288 288 288 287 287 286 285 284 284 283 282 283 284 287 290 294 296 299 300 301 299 294 288 280 274 269 266 265 263 260 258 256 254 252 250 248 245 243 241 237 234 232 231 231 230 229 229 228 227 224 221
283 283 283 283 284 285 285 285 286 287 289 289 290 290 289 288 287 286 286 285 286 287 288 288 288 287 287 287 288 289 289 290 290 290 290 289 289 289 289 289 290 290 289 286 284 282 282 285 288 291 294 297 299 300 301 301 298 293 286 278 271 266 264 263 262 260 258 255 253 251 250 249 248 246 241 235 232 231 232 231 231 231 232 229 224 219
284 285 285 283 284 286 287 285 285 285 285 285 286 288 290 291 291 289 288 287 286 287 288 288 288 288 288 288 290 291 291 292 293 293 293 292 292 292 292 293 294 295 296 294 291 289 288 289 291 293 295 298 299 299 300 299 298 295 290 282 274 267 264 263 263 263 261 258 254 252 250 250 250 249 245 239 234 232 233 232 232 233 235 232 226 220
282 283 285 284 283 282 283 284 285 285 284 282 283 285 289 292 293 292 290 288 287 287 286 286 287 290 292 294 294 295 296 295 295 295 295 295 294 294 294 294 295 296 297 298 297 295 294 293 293 294 295 296 297 298 298 298 298 296 292 286 277 270 264 262 262 263 263 261 258 255 252 250 249 248 247 242 238 236 235 234 233 234 235 235 230 223
282 282 283 283 283 281 279 280 283 285 285 285 285 285 285 287 290 291 290 289 289 290 289 289 291 295 299 300 300 299 299 298 296 295 294 294 294 294 293 293 293 294 295 295 296 296 296 295 294 294 294 294 294 295 296 297 297 296 294 289 282 273 266 262 261 262 263 263 261 259 256 253 250 248 247 244 241 239 237 235 234 234 235 236 232 226
281 282 281 281 282 282 280 280 282 285 286 287 288 288 286 285 286 288 289 291 293 295 296 295 295 295 297 299 299 299 298 298 297 296 296 295 294 295 295 294 294 294 295 295 295 295 295 294 293 292 292 291 292 292 294 295 296 297 296 294 288 279 269 263 260 260 262 262 262 261 259 257 254 251 249 246 243 240 238 236 235 235 235 235 232 227
281 282 282 281 280 281 281 283 285 286 286 286 287 287 287 289 290 291 291 291 293 295 298 297 296 294 294 294 296 296 296 296 295 295 296 295 296 296 297 297 297 297 297 297 296 295 295 294 293 291 291 290 290 291 292 294 296 297 298 297 294 287 278 269 263 261 261 262 262 262 261 259 257 255 252 249 245 242 239 237 236 235 235 234 231 225
285 285 283 282 280 280 281 284 287 287 286 285 285 286 289 291 293 293 292 291 291 293 296 295 294 293 292 292 292 292 293 294 294 294 294 294 294 295 297 298 298 298 299 299 299 298 298 298 296 294 292 291 290 291 292 294 295 297 298 299 298 294 287 278 270 265 263 263 263 263 262 260 259 257 255 251 247 243 239 237 236 235 234 232 227 221
288 289 287 284 282 282 282 285 286 286 285 286 287 288 290 291 292 292 291 290 292 295 297 295 294 293 291 289 289 291 292 293 295 296 295 294 293 294 296 297 297 297 298 299 299 300 300 301 300 298 296 293 291 290 291 292 293 295 297 298 298 296 293 287 279 272 268 266 265 264 263 261 260 258 256 252 248 243 239 236 235 234 232 229 224 219
288 288 286 285 283 282 282 283 284 284 285 287 287 288 289 289 290 291 291 292 295 298 298 297 296 294 290 288 288 290 293 296 299 302 301 298 296 294 296 297 298 297 296 296 296 296 296 297 298 299 298 296 294 292 291 290 291 293 295 296 296 295 293 290 285 278 273 269 267 265 263 261 259 257 255 252 247 242 238 236 234 233 231 228 223 219
285 284 283 283 281 280 281 281 281 281 284 285 285 285 285 287 290 293 294 296 298 299 297 297 297 296 293 292 290 291 297 303 307 308 306 301 298 296 296 296 297 297 296 293 292 292 293 293 294 295 296 296 296 295 293 291 291 291 292 293 293 293 292 290 287 282 277 272 268 266 264 262 259 256 252 249 245 241 237 235 235 233 231 228 224 222
279 278 278 278 278 279 280 279 279 279 281 282 284 285 286 287 291 295 297 298 299 300 298 297 294 290 294 293 291 293 304 308 311 311 306 300 296 296 296 294 293 292 292 290 289 289 289 289 289 290 290 291 292 292 291 290 289 290 290 291 291 290 289 287 286 283 280 275 271 267 265 263 260 256 252 248 243 239 236 235 234 233 231 228 226 224
273 273 272 273 275 276 277 277 277 278 279 280 283 287 288 289 292 294 295 296 297 297 297 296 293 289 289 288 289 294 302 305 308 308 302 296 293 293 295 293 291 289 287 286 285 285 285 285 285 285 286 287 287 288 288 287 287 287 287 287 287 287 286 285 283 282 280 277 273 269 266 264 262 259 255 250 245 240 237 236 234 232 230 229 227 227
273 271 268 269 273 275 275 274 275 276 278 280 284 286 287 289 291 291 290 292 292 292 292 291 289 288 288 288 289 292 298 302 303 302 298 293 290 290 291 291 289 287 285 282 282 282 282 282 283 284 285 286 286 287 286 286 285 284 284 284 284 283 283 282 281 280 279 278 275 272 268 266 265 263 259 255 250 245 242 238 236 234 232 231 231 230
279 275 272 272 273 274 274 274 275 275 277 281 283 283 283 285 285 285 284 286 287 286 286 284 283 283 284 284 286 289 296 300 303 302 298 293 288 286 286 286 285 283 281 279 279 278 278 278 279 281 283 284 286 287 286 285 284 283 282 281 280 280 280 280 279 279 279 278 276 274 271 269 268 266 264 260 255 251 247 243 241 239 237 235 233 232
285 282 281 279 277 276 276 277 278 277 278 280 279 279 278 280 280 280 280 281 282 281 280 279 279 281 284 284 286 289 294 297 299 299 296 291 286 283 284 284 282 280 278 277 277 277 275 275 275 276 278 281 283 285 286 285 283 282 281 280 279 278 277 277 277 277 277 277 276 275 273 271 269 269 267 265 260 256 251 247 245 243 241 238 235 233
277 278 279 279 278 277 278 279 280 279 279 278 277 277 277 278 279 280 282 283 283 283 283 283 284 285 286 287 287 288 287 286 287 287 286 283 281 282 284 283 281 279 276 276 276 276 274 272 271 271 273 276 280 283 284 283 281 280 279 279 278 277 276 275 275 276 276 275 275 274 272 271 270 270 269 267 264 260 255 250 247 244 242 239 236 233
271 272 273 273 273 273 273 274 275 275 275 274 274 276 277 278 279 281 282 282 282 283 285 285 285 284 283 282 282 281 280 279 277 276 274 273 276 279 282 283 281 279 277 277 277 276 275 272 269 268 269 272 276 279 281 280 279 278 277 278 277 277 275 274 274 274 274 274 273 272 270 269 268 269 269 269 268 264 259 253 248 244 241 238 236 234
269 269 269 268 268 268 269 269 269 270 270 270 271 272 273 274 275 275 276 275 275 276 277 278 278 277 277 278 277 276 276 274 269 265 265 269 273 276 279 280 280 279 279 280 280 279 277 275 272 269 269 270 273 276 278 278 277 276 276 276 276 276 275 274 273 273 274 273 273 271 269 267 265 266 268 269 270 268 264 258 251 245 240 237 235 233
270 270 270 270 271 272 273 273 272 271 270 269 269 269 270 270 270 269 268 266 265 265 266 267 267 268 270 271 271 272 273 270 263 257 258 264 271 275 277 278 279 279 280 281 283 282 281 279 277 275 272 272 272 274 276 277 277 277 276 276 275 275 274 274 273 272 272 272 271 270 268 265 263 263 264 266 269 270 268 262 254 247 241 237 234 232
274 275 277 279 279 279 278 277 275 273 271 269 268 268 269 268 267 264 260 258 257 256 256 257 259 262 264 264 265 267 269 267 261 257 257 263 270 273 276 278 278 278 280 282 283 284 283 282 281 279 277 276 275 275 276 277 278 278 277 277 276 275 275 274 273 272 271 269 268 267 266 265 263 262 263 264 266 268 269 265 258 250 243 237 233 231
272 275 277 279 280 280 278 276 273 271 269 267 267 266 266 265 263 260 258 256 253 252 251 252 253 255 259 262 266 269 270 268 266 264 264 267 269 271 275 277 276 276 279 283 285 284 281 280 281 280 279 278 277 277 276 276 277 278 278 278 277 277 276 275 274 272 270 267 266 264 264 264 264 264 265 266 266 267 267 266 261 252 243 236 231 229
267 269 272 276 279 279 277 275 272 270 268 267 266 265 263 261 259 258 258 257 253 249 249 252 255 260 269 275 278 278 275 272 271 271 270 268 267 268 273 274 273 273 278 284 287 286 281 280 280 280 278 277 276 275 275 276 277 278 278 278 278 277 276 275 273 271 269 266 264 263 263 263 265 267 269 270 269 268 266 265 262 254 244 235 229 225
269 273 276 280 282 281 279 276 273 270 269 267 266 265 263 261 260 261 263 265 262 258 260 264 268 272 278 283 285 282 276 273 272 272 269 265 264 266 269 269 269 271 277 285 290 288 283 282 282 281 279 277 277 278 280 283 284 284 283 282 279 277 275 273 272 270 269 267 266 265 265 266 267 269 270 272 271 269 266 264 261 254 244 234 227 223
283 286 286 287 287 286 283 281 278 277 275 273 272 270 268 266 265 266 268 269 269 268 270 273 274 274 275 278 280 277 274 273 273 270 268 266 266 268 271 272 272 274 278 282 288 294 288 286 284 281 279 279 282 285 289 291 292 292 292 290 287 281 276 273 270 269 269 270 270 270 270 270 270 270 271 271 271 269 266 262 259 253 245 234 226 222
292 291 289 287 286 285 286 287 287 285 283 280 277 274 271 268 266 265 265 265 264 264 266 267 268 267 266 263 261 263 268 272 272 270 268 269 271 272 274 275 277 278 279 277 275 275 283 285 281 279 277 278 281 285 287 287 288 289 291 292 291 287 282 276 271 270 271 272 273 273 273 272 272 271 271 271 270 268 265 261 257 252 245 235 227 221
291 289 286 283 281 280 281 281 282 281 279 277 274 272 270 268 265 263 261 259 258 257 257 258 259 259 258 257 257 259 264 268 270 269 266 266 269 271 272 272 273 275 277 273 269 267 267 269 273 275 275 277 281 283 284 283 282 282 284 286 286 286 284 280 275 273 273 274 274 274 274 273 272 271 271 270 270 268 265 260 255 250 245 237 229 221
288 284 280 277 277 277 278 278 277 277 276 274 273 271 270 268 265 262 259 257 255 253 251 251 251 252 254 255 256 258 263 267 269 267 263 260 261 264 266 265 266 268 271 268 263 261 261 265 271 279 283 286 286 287 286 284 283 282 281 280 280 279 279 279 278 276 276 276 276 275 274 273 272 271 271 271 270 268 265 260 255 250 245 239 232 223
280 276 273 272 275 278 280 279 277 275 274 273 272 270 268 266 263 261 259 257 254 252 250 248 247 247 249 251 254 260 265 269 270 267 261 256 255 258 260 257 258 260 263 263 262 262 268 275 284 292 296 294 291 288 287 285 285 284 282 279 276 274 274 274 275 276 277 277 276 275 274 272 271 270 270 270 269 269 266 262 256 250 245 241 234 226
273 270 272 276 281 283 282 280 276 273 271 269 268 267 266 265 264 263 261 260 258 256 254 252 250 249 248 249 253 259 266 270 270 267 261 257 255 255 256 254 254 256 261 267 273 279 285 289 291 293 293 292 290 287 286 285 285 285 284 281 278 275 273 273 274 275 276 276 275 274 273 272 271 269 269 268 268 268 267 264 258 252 246 241 235 228
280 282 285 287 285 282 279 277 275 274 273 274 276 278 280 281 280 278 274 271 268 266 265 263 261 259 257 256 257 260 265 268 268 265 262 260 258 258 258 259 260 261 264 270 275 279 282 285 286 286 284 282 281 282 283 284 284 285 285 286 285 282 279 278 277 277 276 275 274 274 273 272 271 269 269 268 267 266 266 264 260 254 248 241 234 227
294 294 293 292 288 286 287 289 292 294 295 297 298 298 296 293 289 285 281 278 276 274 272 271 270 268 267 265 265 265 266 267 267 266 264 262 261 261 261 263 264 264 264 267 270 272 273 275 276 276 275 274 274 276 278 280 281 282 283 285 286 285 283 281 280 278 276 275 274 274 273 272 272 271 270 267 265 263 262 261 258 254 248 240 232 225
292 291 290 290 291 294 298 300 301 301 300 299 297 296 294 291 288 285 283 280 278 276 274 273 272 271 270 270 269 269 268 268 268 268 266 265 262 261 260 262 263 264 264 264 264 264 263 263 264 266 269 273 273 274 275 276 276 278 280 283 284 283 280 279 277 277 275 275 274 273 274 274 273 272 270 267 263 259 256 255 253 249 243 234 226 219
290 289 289 289 290 291 293 294 295 296 296 296 295 295 293 292 290 288 285 283 280 278 276 275 274 272 271 270 269 269 268 268 267 267 266 264 262 260 258 258 259 261 262 261 260 258 258 260 263 265 267 269 271 272 272 272 272 274 277 280 281 279 277 276 274 273 273 273 271 271 272 273 273 272 269 266 262 257 253 251 249 246 239 228 218 210
293 292 292 292 292 292 291 291 292 293 293 293 293 293 291 290 289 287 286 284 281 280 278 277 275 273 272 270 269 269 268 267 266 265 263 262 261 259 257 255 255 256 258 258 256 255 254 256 259 262 263 264 265 267 268 269 270 271 273 274 275 276 277 275 274 272 270 269 268 269 270 271 271 271 268 265 260 256 252 248 246 243 237 225 214 205
294 294 293 292 292 290 289 289 288 288 288 288 288 287 287 286 285 284 283 282 280 279 277 275 274 273 271 270 270 269 268 266 265 264 263 261 260 258 257 255 254 253 253 253 252 251 250 250 253 256 258 259 261 264 266 267 268 269 269 270 272 275 276 274 272 270 266 264 264 265 267 268 269 269 267 264 260 256 251 247 244 239 232 222 211 201
291 290 289 288 286 286 285 285 285 285 285 285 285 284 284 284 283 281 280 279 278 277 274 272 271 270 270 269 269 268 268 267 266 265 263 262 260 258 256 254 253 251 250 248 248 248 249 248 249 251 254 257 260 263 266 268 268 268 268 267 268 270 272 272 272 270 265 262 261 263 265 267 269 270 270 267 262 257 250 245 241 236 229 217 206 197
286 285 285 284 284 285 285 285 286 287 287 287 286 286 286 285 284 282 280 278 276 273 271 270 269 268 267 267 268 268 267 267 265 264 262 262 261 259 257 255 253 251 249 247 248 250 252 252 253 255 258 260 262 264 265 266 267 268 267 266 264 262 263 268 271 271 268 265 265 266 268 269 270 271 272 269 263 256 249 242 235 230 222 212 202 193
284 287 290 293 295 297 297 295 294 293 292 290 289 288 287 287 286 284 282 281 280 278 275 273 271 268 265 264 265 266 267 267 266 263 261 261 260 259 258 256 255 253 252 250 250 251 252 255 258 260 262 262 261 261 262 264 265 266 266 264 261 259 260 263 266 267 267 267 267 269 271 273 274 273 273 269 262 254 246 236 227 220 213 205 196 189
300 302 303 303 302 300 297 296 294 292 290 288 286 286 286 287 288 289 289 291 291 291 289 284 277 271 267 265 265 266 266 266 265 264 261 260 259 257 257 256 255 254 252 251 251 250 250 253 256 259 261 260 259 258 258 259 261 262 263 262 260 259 260 262 263 262 262 262 265 269 273 276 276 273 270 265 257 248 239 228 218 210 202 194 189 185
303 301 300 298 296 295 293 292 290 288 286 285 284 285 287 289 290 291 290 290 289 290 291 289 285 280 276 274 271 269 267 266 265 263 261 259 257 255 254 254 255 255 254 252 250 249 249 250 251 252 254 256 258 259 258 258 258 258 259 260 259 258 258 260 260 259 257 258 261 267 272 273 271 267 263 257 246 233 222 215 208 200 193 187 184 181
298 296 295 294 293 292 291 290 289 288 287 287 288 288 289 289 289 288 287 285 284 283 284 284 284 284 284 283 281 277 274 272 269 267 264 262 260 258 257 256 257 257 257 254 252 250 248 248 248 248 248 249 253 257 259 259 257 256 256 257 257 255 254 254 254 253 252 254 259 264 267 265 261 259 256 246 229 210 198 194 193 190 187 183 180 179
295 294 293 293 292 291 291 291 291 290 290 290 290 290 290 289 288 286 284 282 281 279 277 276 276 278 279 281 282 282 281 280 279 277 274 272 270 269 267 265 263 261 257 254 252 250 249 248 248 247 246 245 247 252 257 258 257 256 255 255 253 251 248 248 246 246 246 250 255 259 260 256 253 253 251 240 217 191 176 175 178 179 180 179 177 177
293 293 292 292 291 291 291 291 291 291 290 290 290 290 290 289 287 285 282 280 277 275 272 271 271 272 273 275 276 278 278 279 279 279 277 276 275 274 272 268 264 259 254 252 249 248 248 249 250 250 249 247 245 246 250 253 254 253 252 250 249 249 249 248 246 244 244 245 247 250 249 247 247 248 248 239 214 183 165 163 168 172 174 174 174 174
293 292 292 291 290 290 290 290 290 289 289 289 289 289 289 288 287 285 283 280 277 276 274 273 271 270 271 272 273 273 273 273 273 273 273 272 272 270 268 265 260 255 252 250 248 247 248 251 255 256 255 251 246 243 241 244 246 247 247 247 247 248 250 251 250 245 240 237 236 235 235 236 238 241 243 237 215 182 160 155 159 166 169 170 170 170